Simultaneous Nadir Overpasses (SNOs) Predictions

Prediction of SNOs between LANDSAT-8 and METOP-A Satellite Orbit:

Table of predicted SNOs for the next 14.0 days since TLE Epoch: 5/1/2015
Index Date (LANDSAT-8) Time (LANDSAT-8) Lat,Lon (LANDSAT-8) SZA (LANDSAT-8 ) Date (METOP-A) Time (METOP-A) Lat,Lon (METOP-A) SZA (METOP-A ) Distance(km) Time Diff (sec)
1 05/03/2015 15:45:03 -81.11, 162.67 112.50 05/03/2015 15:44:17 -81.12, 162.73 112.50 1.31 46
2 05/03/2015 16:34:28 81.14, -29.25 67.57 05/03/2015 16:34:56 81.14, -29.35 67.57 1.78 28
3 05/06/2015 11:19:14 -81.12,-130.68 113.26 05/06/2015 11:18:38 -81.13,-130.56 113.26 2.02 36
4 05/06/2015 12:08:39 81.15, 37.39 66.80 05/06/2015 12:09:17 81.15, 37.35 66.81 0.75 38
5 05/09/2015 06:53:24 -81.13, -64.18 114.02 05/09/2015 06:52:59 -81.12, -64.32 114.05 2.37 25
6
